,,Stat6,,Stat2,,Stat8,,Stat9,,Stat10,,Wind1,,Wind1,
time,status,PA1M_AVG,status,PR1M_SUM,status,RH1M_AVG,status,SR1M_AVG,status,TA1M_AVG,status,W1dAve1m,status,W1sAve1m,
2009-07-30, 07:00:02,VALID,919.624,VALID,0,VALID,97.0438,VALID,94.7361,VALID,17.7242,VALID,136,VALID,1.24684,
2009-07-30, 07:01:00,VALID,919.64,VALID,0,VALID,96.8581,VALID,96.1624,VALID,17.7856,VALID,144,VALID,1.00109,
2009-07-30, 07:02:00,VALID,919.663,VALID,0,VALID,96.5351,VALID,97.3171,VALID,17.8606,VALID,142,VALID,1.16988,
2009-07-30, 07:03:00,VALID,919.676,VALID,0,VALID,96.1473,VALID,95.7379,VALID,17.909,VALID,150,VALID,1.21354,
2009-07-30, 07:04:00,VALID,919.691,VALID,0,VALID,96.0507,VALID,98.3869,VALID,17.9836,VALID,150,VALID,0.898251,
2009-07-30, 07:05:00,VALID,919.699,VALID,0,VALID,95.8981,VALID,100.289,VALID,18.0647,VALID,146,VALID,0.929297,
2009-07-30, 07:06:00,VALID,919.69,VALID,0,VALID,95.5242,VALID,101.868,VALID,18.0871,VALID,148,VALID,1.36819,
2009-07-30, 07:07:00,VALID,919.68,VALID,0,VALID,95.5255,VALID,109.289,VALID,18.0876,VALID,142,VALID,1.13619,
2009-07-30, 07:08:00,VALID,919.672,VALID,0,VALID,95.6704,VALID,113.873,VALID,18.1071,VALID,149,VALID,0.84707,
2009-07-30, 07:09:00,VALID,919.687,VALID,0,VALID,95.5865,VALID,115.538,VALID,18.1365,VALID,150,VALID,1.15789,
2009-07-30, 07:10:00,VALID,919.706,VALID,0,VALID,95.5598,VALID,119.953,VALID,18.1332,VALID,149,VALID,1.06055,
2009-07-30, 07:11:00,VALID,919.723,VALID,0,VALID,95.7582,VALID,139.294,VALID,18.1494,VALID,140,VALID,0.841797,
2009-07-30, 07:12:00,VALID,919.758,VALID,0,VALID,95.7366,VALID,155.782,VALID,18.1427,VALID,141,VALID,1.00335,
2009-07-30, 07:13:00,VALID,919.794,VALID,0,VALID,95.9909,VALID,157.667,VALID,18.171,VALID,141,VALID,0.794695,
2009-07-30, 07:14:00,VALID,919.823,VALID,0,VALID,95.8014,VALID,158.38,VALID,18.2199,VALID,157,VALID,0.841933,
2009-07-30, 07:15:00,VALID,919.843,VALID,0,VALID,95.4911,VALID,157.854,VALID,18.2912,VALID,140,VALID,0.921875,
2009-07-30, 07:16:00,VALID,919.882,VALID,0,VALID,95.2038,VALID,156.801,VALID,18.3786,VALID,132,VALID,0.854353,
2009-07-30, 07:17:00,VALID,919.898,VALID,0,VALID,94.512,VALID,157.599,VALID,18.408,VALID,139,VALID,1.00595,
2009-07-30, 07:18:00,VALID,919.918,VALID,0,VALID,94.3988,VALID,161.827,VALID,18.4631,VALID,144,VALID,0.930859,
2009-07-30, 07:19:00,VALID,919.936,VALID,0,VALID,94.367,VALID,167.669,VALID,18.5379,VALID,143,VALID,0.722461,
2009-07-30, 07:20:00,VALID,919.924,VALID,0,VALID,94.2539,VALID,174.767,VALID,18.5986,VALID,141,VALID,0.714428,
2009-07-30, 07:21:00,VALID,919.932,VALID,0,VALID,94.2106,VALID,181.916,VALID,18.6969,VALID,137,VALID,0.812322,
2009-07-30, 07:22:00,VALID,919.952,VALID,0,VALID,94.0364,VALID,185.957,VALID,18.7712,VALID,128,VALID,0.883168,
2009-07-30, 07:23:00,VALID,919.955,VALID,0,VALID,93.833,VALID,188.674,VALID,18.8556,VALID,144,VALID,0.955669,
2009-07-30, 07:24:00,VALID,919.964,VALID,0,VALID,93.7147,VALID,190.763,VALID,18.9404,VALID,143,VALID,0.850694,
2009-07-30, 07:25:00,VALID,919.971,VALID,0,VALID,93.3828,VALID,191.849,VALID,19.0085,VALID,141,VALID,1.21733,
2009-07-30, 07:26:00,VALID,919.992,VALID,0,VALID,93.0242,VALID,195.093,VALID,19.0702,VALID,151,VALID,1.22747,
2009-07-30, 07:27:00,VALID,920.021,VALID,0,VALID,92.7852,VALID,199.525,VALID,19.0991,VALID,144,VALID,1.15176,
2009-07-30, 07:28:00,VALID,920.029,VALID,0,VALID,92.9759,VALID,206.504,VALID,19.141,VALID,146,VALID,1.05868,
2009-07-30, 07:29:00,VALID,920.05,VALID,0,VALID,93.0929,VALID,215.045,VALID,19.2029,VALID,149,VALID,0.895833,
2009-07-30, 07:30:00,VALID,920.064,VALID,0,VALID,92.7635,VALID,220.53,VALID,19.2319,VALID,137,VALID,1.10574,
2009-07-30, 07:31:00,VALID,920.072,VALID,0,VALID,92.7801,VALID,224.232,VALID,19.2384,VALID,154,VALID,0.832317,
2009-07-30, 07:32:00,VALID,920.079,VALID,0,VALID,92.5105,VALID,226.983,VALID,19.313,VALID,145,VALID,0.915365,
2009-07-30, 07:33:00,VALID,920.105,VALID,0,VALID,92.1316,VALID,228.358,VALID,19.3619,VALID,146,VALID,1.03551,
2009-07-30, 07:34:00,VALID,920.133,VALID,0,VALID,91.9841,VALID,229.717,VALID,19.4105,VALID,150,VALID,0.917225,
2009-07-30, 07:35:00,VALID,920.15,VALID,0,VALID,91.7247,VALID,234.013,VALID,19.4852,VALID,150,VALID,0.622337,
2009-07-30, 07:36:00,VALID,920.162,VALID,0,VALID,90.8676,VALID,238.275,VALID,19.5341,VALID,151,VALID,1.2167,
2009-07-30, 07:37:00,VALID,920.182,VALID,0,VALID,90.5001,VALID,241.926,VALID,19.5441,VALID,158,VALID,1.28054,
2009-07-30, 07:38:00,VALID,920.199,VALID,0,VALID,90.509,VALID,248.582,VALID,19.551,VALID,155,VALID,0.756836,
2009-07-30, 07:39:00,VALID,920.209,VALID,0,VALID,91.0265,VALID,254.22,VALID,19.6344,VALID,153,VALID,0.758384,
2009-07-30, 07:40:00,VALID,920.23,VALID,0,VALID,91.0469,VALID,258.346,VALID,19.7355,VALID,155,VALID,0.944311,
2009-07-30, 07:41:00,VALID,920.264,VALID,0,VALID,91.2262,VALID,257.294,VALID,19.8358,VALID,156,VALID,0.770774,
2009-07-30, 07:42:00,VALID,920.297,VALID,0,VALID,90.5204,VALID,251.571,VALID,19.8982,VALID,145,VALID,1.21348,
2009-07-30, 07:43:00,VALID,920.336,VALID,0,VALID,91.3915,VALID,248.311,VALID,19.9923,VALID,164,VALID,0.373757,
2009-07-30, 07:44:00,VALID,920.363,VALID,0,VALID,90.7951,VALID,248.565,VALID,20.1346,VALID,153,VALID,0.755814,
2009-07-30, 07:45:00,VALID,920.369,VALID,0,VALID,90.2801,VALID,249.397,VALID,20.2712,VALID,134,VALID,0.132813,
2009-07-30, 07:46:00,VALID,920.374,VALID,0,VALID,89.2755,VALID,261.624,VALID,20.3356,VALID,160,VALID,0,
2009-07-30, 07:47:00,VALID,920.382,VALID,0,VALID,88.9564,VALID,270.997,VALID,20.4015,VALID,158,VALID,0.136364,
2009-07-30, 07:48:00,VALID,920.405,VALID,0,VALID,88.5304,VALID,269.961,VALID,20.5043,VALID,149,VALID,0.779018,
2009-07-30, 07:49:00,VALID,920.434,VALID,0,VALID,88.065,VALID,264.765,VALID,20.5665,VALID,171,VALID,0.72532,
2009-07-30, 07:50:00,VALID,920.464,VALID,0,VALID,86.5289,VALID,261.827,VALID,20.564,VALID,153,VALID,1.21911,
2009-07-30, 07:51:00,VALID,920.484,VALID,0,VALID,86.9587,VALID,261.284,VALID,20.5478,VALID,165,VALID,0.325041,
2009-07-30, 07:52:00,VALID,920.504,VALID,0,VALID,86.8557,VALID,252.828,VALID,20.5768,VALID,165,VALID,1.15861,
2009-07-30, 07:53:00,VALID,920.502,VALID,0,VALID,86.7425,VALID,228.936,VALID,20.5151,VALID,153,VALID,1.22354,
2009-07-30, 07:54:00,VALID,920.512,VALID,0,VALID,86.7908,VALID,241.909,VALID,20.4796,VALID,167,VALID,1.09464,
2009-07-30, 07:55:00,VALID,920.515,VALID,0,VALID,86.9015,VALID,269.316,VALID,20.4724,VALID,155,VALID,0.79633,
2009-07-30, 07:56:00,VALID,920.538,VALID,0,VALID,87.0045,VALID,296.995,VALID,20.4634,VALID,144,VALID,1.1834,
2009-07-30, 07:57:00,VALID,920.561,VALID,0,VALID,86.9256,VALID,317.745,VALID,20.395,VALID,151,VALID,1.26486,
2009-07-30, 07:58:00,VALID,920.592,VALID,0,VALID,87.4521,VALID,327.373,VALID,20.4058,VALID,137,VALID,0.971475,
2009-07-30, 07:59:00,VALID,920.626,VALID,0,VALID,88.0179,VALID,320.377,VALID,20.4355,VALID,138,VALID,1.13398,
2009-07-30, 08:00:00,VALID,920.643,VALID,0,VALID,88.3791,VALID,311.649,VALID,20.4934,VALID,133,VALID,0.285326,
2009-07-30, 08:01:00,VALID,920.66,VALID,0,VALID,88.0573,VALID,319.579,VALID,20.5131,VALID,119,VALID,0.670898,
2009-07-30, 08:02:00,VALID,920.683,VALID,0,VALID,88.6664,VALID,339.888,VALID,20.594,VALID,139,VALID,0.594658,
2009-07-30, 08:03:00,VALID,920.686,VALID,0,VALID,88.5825,VALID,352.607,VALID,20.6749,VALID,143,VALID,0.600229,
2009-07-30, 08:04:00,VALID,920.693,VALID,0,VALID,87.5271,VALID,343.267,VALID,20.7011,VALID,132,VALID,1.31269,
2009-07-30, 08:05:00,VALID,920.692,VALID,0,VALID,87.0401,VALID,329.394,VALID,20.6979,VALID,135,VALID,0.972384,
2009-07-30, 08:06:00,VALID,920.705,VALID,0,VALID,88.0917,VALID,323.773,VALID,20.7728,VALID,143,VALID,0.0383003,
2009-07-30, 08:07:00,VALID,920.72,VALID,0,VALID,87.6962,VALID,345.781,VALID,20.8699,VALID,153,VALID,0.000679348,
2009-07-30, 08:08:00,VALID,920.736,VALID,0,VALID,86.6281,VALID,350.501,VALID,20.8929,VALID,143,VALID,0.316497,
2009-07-30, 08:09:00,VALID,920.764,VALID,0,VALID,87.2143,VALID,355.68,VALID,20.9251,VALID,168,VALID,0.527257,
2009-07-30, 08:10:00,VALID,920.796,VALID,0,VALID,85.9045,VALID,365.054,VALID,21.0752,VALID,186,VALID,0.280678,
2009-07-30, 08:11:00,VALID,920.801,VALID,0,VALID,85.9478,VALID,312.838,VALID,21.1948,VALID,144,VALID,0.472124,
2009-07-30, 08:12:00,VALID,920.802,VALID,0,VALID,86.258,VALID,229.7,VALID,21.2895,VALID,118,VALID,0,
2009-07-30, 08:13:00,VALID,920.785,VALID,0,VALID,84.7842,VALID,264.12,VALID,21.3415,VALID,172,VALID,0.00114329,
2009-07-30, 08:14:00,VALID,920.791,VALID,0,VALID,84.9495,VALID,312.04,VALID,21.2376,VALID,148,VALID,0.00243056,
2009-07-30, 08:15:00,VALID,920.799,VALID,0,VALID,85.448,VALID,334.234,VALID,21.335,VALID,161,VALID,0,
2009-07-30, 08:16:00,VALID,920.828,VALID,0,VALID,85.1822,VALID,384.972,VALID,21.3799,VALID,131,VALID,0,
2009-07-30, 08:17:00,VALID,920.855,VALID,0,VALID,84.9584,VALID,487.537,VALID,21.4356,VALID,149,VALID,0,
2009-07-30, 08:18:00,VALID,920.881,VALID,0,VALID,83.9869,VALID,507.37,VALID,21.5555,VALID,166,VALID,0.270275,
2009-07-30, 08:19:00,VALID,920.883,VALID,0,VALID,83.7466,VALID,395.433,VALID,21.5665,VALID,159,VALID,0,
2009-07-30, 08:20:00,VALID,920.903,VALID,0,VALID,84.034,VALID,255.324,VALID,21.6385,VALID,147,VALID,0,
2009-07-30, 08:21:00,VALID,920.922,VALID,0,VALID,83.992,VALID,237.205,VALID,21.6672,VALID,190,VALID,0,
2009-07-30, 08:22:00,VALID,920.938,VALID,0,VALID,84.7016,VALID,243.675,VALID,21.7519,VALID,174,VALID,0,
2009-07-30, 08:23:00,VALID,920.955,VALID,0,VALID,84.6723,VALID,257.446,VALID,21.8241,VALID,153,VALID,0,
2009-07-30, 08:24:00,VALID,920.957,VALID,0,VALID,84.7003,VALID,271.252,VALID,21.8138,VALID,177,VALID,0,
2009-07-30, 08:25:00,VALID,920.962,VALID,0,VALID,84.1599,VALID,279.572,VALID,21.8203,VALID,158,VALID,0,
2009-07-30, 08:26:00,VALID,920.962,VALID,0,VALID,83.622,VALID,279.25,VALID,21.8988,VALID,179,VALID,0,
2009-07-30, 08:27:00,VALID,920.959,VALID,0,VALID,83.2316,VALID,279.08,VALID,21.9213,VALID,168,VALID,0,
2009-07-30, 08:28:00,VALID,920.957,VALID,0,VALID,82.4445,VALID,261.658,VALID,21.8531,VALID,151,VALID,0,
2009-07-30, 08:29:00,VALID,920.97,VALID,0,VALID,83.6703,VALID,244.813,VALID,21.8333,VALID,148,VALID,0,
2009-07-30, 08:30:00,VALID,920.981,VALID,0,VALID,84.1764,VALID,236.034,VALID,21.8888,VALID,195,VALID,0,
2009-07-30, 08:31:00,VALID,920.981,VALID,0,VALID,83.2405,VALID,238.649,VALID,21.944,VALID,194,VALID,0,
2009-07-30, 08:32:00,VALID,920.98,VALID,0,VALID,83.3867,VALID,244.099,VALID,21.97,VALID,168,VALID,0,
2009-07-30, 08:33:00,VALID,920.977,VALID,0,VALID,83.1896,VALID,246.46,VALID,22.029,VALID,187,VALID,0,
2009-07-30, 08:34:00,VALID,920.993,VALID,0,VALID,82.3707,VALID,243.505,VALID,22.0417,VALID,173,VALID,0,
2009-07-30, 08:35:00,VALID,921.001,VALID,0,VALID,81.9791,VALID,257.361,VALID,22.0252,VALID,171,VALID,0,
2009-07-30, 08:36:00,VALID,921.023,VALID,0,VALID,82.1088,VALID,238.734,VALID,22.0512,VALID,165,VALID,0,
2009-07-30, 08:37:00,VALID,921.044,VALID,0,VALID,82.6149,VALID,231.992,VALID,22.0769,VALID,187,VALID,0,
2009-07-30, 08:38:00,VALID,921.051,VALID,0,VALID,82.8476,VALID,232.417,VALID,22.1256,VALID,187,VALID,0,
2009-07-30, 08:39:00,VALID,921.042,VALID,0,VALID,82.4915,VALID,234.132,VALID,22.0807,VALID,132,VALID,0,
2009-07-30, 08:40:00,VALID,921.053,VALID,0,VALID,82.3758,VALID,240.245,VALID,21.9797,VALID,140,VALID,0,
2009-07-30, 08:41:00,VALID,921.049,VALID,0,VALID,82.7319,VALID,287.587,VALID,21.8934,VALID,128,VALID,0,
2009-07-30, 08:42:00,VALID,921.071,VALID,0,VALID,83.4491,VALID,335.575,VALID,21.8282,VALID,117,VALID,0,
2009-07-30, 08:43:00,VALID,921.079,VALID,0,VALID,84.2756,VALID,373.748,VALID,21.9183,VALID,99,VALID,0,
2009-07-30, 08:44:00,VALID,921.072,VALID,0,VALID,83.1146,VALID,385.261,VALID,21.9703,VALID,91,VALID,0,
2009-07-30, 08:45:00,VALID,921.073,VALID,0,VALID,81.0406,VALID,394.278,VALID,21.9448,VALID,96,VALID,0,
2009-07-30, 08:46:00,VALID,921.064,VALID,0,VALID,80.3743,VALID,311.31,VALID,22.0812,VALID,134,VALID,0,
2009-07-30, 08:47:00,VALID,921.046,VALID,0,VALID,79.9216,VALID,382.663,VALID,22.2173,VALID,126,VALID,0,
2009-07-30, 08:48:00,VALID,921.019,VALID,0,VALID,79.6965,VALID,452.573,VALID,22.3951,VALID,59,VALID,0,
2009-07-30, 08:49:00,VALID,921.009,VALID,0,VALID,79.0086,VALID,419.206,VALID,22.538,VALID,53,VALID,0,
2009-07-30, 08:50:00,VALID,920.994,VALID,0,VALID,79.3303,VALID,446.426,VALID,22.7526,VALID,87,VALID,0,
2009-07-30, 08:51:00,VALID,920.969,VALID,0,VALID,77.9303,VALID,434.234,VALID,22.9121,VALID,146,VALID,0,
2009-07-30, 08:52:00,VALID,920.943,VALID,0,VALID,77.4712,VALID,450.366,VALID,22.9221,VALID,135,VALID,0,
2009-07-30, 08:53:00,VALID,920.903,VALID,0,VALID,77.8705,VALID,466.616,VALID,23.0027,VALID,133,VALID,0.0935764,
2009-07-30, 08:54:00,VALID,920.892,VALID,0,VALID,76.7083,VALID,512.023,VALID,23.0399,VALID,151,VALID,0.0567336,
2009-07-30, 08:55:00,VALID,920.891,VALID,0,VALID,77.0058,VALID,493.106,VALID,22.9454,VALID,145,VALID,0.0408203,
2009-07-30, 08:56:00,VALID,920.894,VALID,0,VALID,78.2367,VALID,457.43,VALID,22.9968,VALID,153,VALID,0,
2009-07-30, 08:57:00,VALID,920.913,VALID,0,VALID,78.1376,VALID,440.16,VALID,23.1043,VALID,162,VALID,0.00123355,
2009-07-30, 08:58:00,VALID,920.913,VALID,0,VALID,76.7846,VALID,444.015,VALID,23.1341,VALID,182,VALID,0,
2009-07-30, 08:59:00,VALID,920.921,VALID,0,VALID,76.9829,VALID,410.325,VALID,23.2735,VALID,182,VALID,0.0012718,
2009-07-30, 09:00:00,VALID,920.911,VALID,0,VALID,76.8723,VALID,377.773,VALID,23.3574,VALID,187,VALID,0.0453506,
2009-07-30, 09:01:00,VALID,920.876,VALID,0,VALID,76.1284,VALID,365.173,VALID,23.4649,VALID,197,VALID,0,
2009-07-30, 09:02:00,VALID,920.859,VALID,0,VALID,76.1666,VALID,382.918,VALID,23.5263,VALID,193,VALID,0,
2009-07-30, 09:03:00,VALID,920.822,VALID,0,VALID,76.1284,VALID,363.695,VALID,23.5759,VALID,194,VALID,0,
2009-07-30, 09:04:00,VALID,920.814,VALID,0,VALID,74.5059,VALID,372.525,VALID,23.5727,VALID,157,VALID,0,
2009-07-30, 09:05:00,VALID,920.809,VALID,0,VALID,76.3484,VALID,385.821,VALID,23.4427,VALID,90,VALID,0.568598,
2009-07-30, 09:06:00,VALID,920.801,VALID,0,VALID,75.7635,VALID,395.246,VALID,23.2933,VALID,80,VALID,0.807106,
2009-07-30, 09:07:00,VALID,920.806,VALID,0,VALID,75.134,VALID,486.229,VALID,23.2248,VALID,95,VALID,0.296342,
2009-07-30, 09:08:00,VALID,920.774,VALID,0,VALID,75.1124,VALID,567.007,VALID,23.264,VALID,99,VALID,0.000372024,
2009-07-30, 09:09:00,VALID,920.751,VALID,0,VALID,75.855,VALID,552.318,VALID,23.5567,VALID,31,VALID,0.0804869,
2009-07-30, 09:10:00,VALID,920.721,VALID,0,VALID,75.5397,VALID,510.342,VALID,23.9138,VALID,59,VALID,0.0209604,
2009-07-30, 09:11:00,VALID,920.704,VALID,0,VALID,73.8039,VALID,453.983,VALID,23.9268,VALID,46,VALID,0.422619,
2009-07-30, 09:12:00,VALID,920.699,VALID,0,VALID,73.678,VALID,481.305,VALID,23.8122,VALID,114,VALID,0.676829,
2009-07-30, 09:13:00,VALID,920.686,VALID,0,VALID,72.264,VALID,537.732,VALID,23.7658,VALID,159,VALID,0.434837,
2009-07-30, 09:14:00,VALID,920.679,VALID,0,VALID,72.7663,VALID,518.391,VALID,23.733,VALID,137,VALID,0,
2009-07-30, 09:15:00,VALID,920.654,VALID,0,VALID,72.6417,VALID,522.619,VALID,23.834,VALID,53,VALID,0.135174,
2009-07-30, 09:16:00,VALID,920.632,VALID,0,VALID,73.8255,VALID,506.453,VALID,23.5709,VALID,59,VALID,0.102983,
2009-07-30, 09:17:00,VALID,920.618,VALID,0,VALID,75.0654,VALID,491.935,VALID,23.4539,VALID,41,VALID,0.0255208,
2009-07-30, 09:18:00,VALID,920.616,VALID,0,VALID,76.0865,VALID,533.657,VALID,23.4932,VALID,48,VALID,0.222266,
2009-07-30, 09:19:00,VALID,920.61,VALID,0,VALID,76.4005,VALID,570.437,VALID,23.5062,VALID,30,VALID,0.202567,
2009-07-30, 09:20:00,VALID,920.623,VALID,0,VALID,75.1328,VALID,589.252,VALID,23.7531,VALID,36,VALID,0,
2009-07-30, 09:21:00,VALID,920.623,VALID,0,VALID,74.0672,VALID,578.893,VALID,24.0689,VALID,147,VALID,0.702237,
2009-07-30, 09:22:00,VALID,920.615,VALID,0,VALID,74.0417,VALID,578.044,VALID,24.3119,VALID,116,VALID,0.142113,
2009-07-30, 09:23:00,VALID,920.595,VALID,0,VALID,72.3772,VALID,540.772,VALID,24.5329,VALID,170,VALID,0.19707,
2009-07-30, 09:24:00,VALID,920.583,VALID,0,VALID,71.3218,VALID,583.359,VALID,24.6053,VALID,137,VALID,0.00121528,
2009-07-30, 09:25:00,VALID,920.564,VALID,0,VALID,71.1501,VALID,615.334,VALID,24.478,VALID,88,VALID,0.457667,
2009-07-30, 09:26:00,VALID,920.546,VALID,0,VALID,71.5634,VALID,607.065,VALID,24.3997,VALID,139,VALID,0.291178,
2009-07-30, 09:27:00,VALID,920.517,VALID,0,VALID,72.3441,VALID,616.608,VALID,24.5016,VALID,151,VALID,0.526414,
2009-07-30, 09:28:00,VALID,920.51,VALID,0,VALID,70.7521,VALID,603.872,VALID,24.6335,VALID,201,VALID,0.156795,
2009-07-30, 09:29:00,VALID,920.491,VALID,0,VALID,69.9993,VALID,583.292,VALID,24.7278,VALID,165,VALID,0.166921,
2009-07-30, 09:30:00,VALID,920.493,VALID,0,VALID,70.1913,VALID,578.095,VALID,24.6556,VALID,169,VALID,0.174055,
2009-07-30, 09:31:00,VALID,920.479,VALID,0,VALID,71.1158,VALID,560.384,VALID,24.6641,VALID,161,VALID,0.00613839,
2009-07-30, 09:32:00,VALID,920.484,VALID,0,VALID,71.9995,VALID,610.8,VALID,24.8266,VALID,213,VALID,0.0655571,
2009-07-30, 09:33:00,VALID,920.477,VALID,0,VALID,70.5931,VALID,615.657,VALID,24.9829,VALID,184,VALID,0.000355114,
2009-07-30, 09:34:00,VALID,920.483,VALID,0,VALID,71.8342,VALID,596.655,VALID,24.7457,VALID,152,VALID,0.190217,
2009-07-30, 09:35:00,VALID,920.484,VALID,0,VALID,71.6765,VALID,590.95,VALID,24.6053,VALID,169,VALID,0.387091,
2009-07-30, 09:36:00,VALID,920.486,VALID,0,VALID,71.3942,VALID,579.08,VALID,24.4857,VALID,165,VALID,0.0749628,
2009-07-30, 09:37:00,VALID,920.484,VALID,0,VALID,72.1292,VALID,607.218,VALID,24.3005,VALID,178,VALID,0.21224,
2009-07-30, 09:38:00,VALID,920.48,VALID,0,VALID,73.2368,VALID,651.707,VALID,24.307,VALID,177,VALID,0.11128,
2009-07-30, 09:39:00,VALID,920.46,VALID,0,VALID,73.1071,VALID,655.239,VALID,24.2875,VALID,149,VALID,0.726376,
2009-07-30, 09:40:00,VALID,920.443,VALID,0,VALID,73.9374,VALID,652.879,VALID,24.359,VALID,182,VALID,0.464026,
2009-07-30, 09:41:00,VALID,920.433,VALID,0,VALID,73.3894,VALID,670.997,VALID,24.4857,VALID,192,VALID,0.83718,
2009-07-30, 09:42:00,VALID,920.401,VALID,0,VALID,71.983,VALID,671.031,VALID,24.6039,VALID,166,VALID,0.829578,
2009-07-30, 09:43:00,VALID,920.401,VALID,0,VALID,71.8253,VALID,646.953,VALID,24.6149,VALID,191,VALID,0.52468,
2009-07-30, 09:44:00,VALID,920.385,VALID,0,VALID,71.393,VALID,652.438,VALID,24.7417,VALID,163,VALID,0.699219,
2009-07-30, 09:45:00,VALID,920.384,VALID,0,VALID,71.4909,VALID,658.058,VALID,24.7664,VALID,145,VALID,0.0546875,
2009-07-30, 09:46:00,VALID,920.383,VALID,0,VALID,71.0827,VALID,638.157,VALID,24.7168,VALID,180,VALID,0.579215,
2009-07-30, 09:47:00,VALID,920.383,VALID,0,VALID,70.0781,VALID,632.927,VALID,24.7986,VALID,168,VALID,0.136541,
2009-07-30, 09:48:00,VALID,920.368,VALID,0,VALID,69.8759,VALID,620.106,VALID,25.084,VALID,160,VALID,0.259115,
2009-07-30, 09:49:00,VALID,920.373,VALID,0,VALID,70.4863,VALID,639.991,VALID,25.1854,VALID,143,VALID,0.256882,
2009-07-30, 09:50:00,VALID,920.344,VALID,0,VALID,70.7673,VALID,615.453,VALID,25.3639,VALID,204,VALID,0.523628,
2009-07-30, 09:51:00,VALID,920.333,VALID,0,VALID,68.481,VALID,614.451,VALID,25.5492,VALID,240,VALID,1.08873,
2009-07-30, 09:52:00,VALID,920.312,VALID,0,VALID,67.7396,VALID,598.625,VALID,25.5849,VALID,271,VALID,0.0593378,
2009-07-30, 09:53:00,VALID,920.299,VALID,0,VALID,68.851,VALID,580.575,VALID,25.4786,VALID,235,VALID,0.322409,
2009-07-30, 09:54:00,VALID,920.291,VALID,0,VALID,69.1333,VALID,570.607,VALID,25.374,VALID,179,VALID,0.0107422,
2009-07-30, 09:55:00,VALID,920.259,VALID,0,VALID,68.6832,VALID,582.171,VALID,25.4191,VALID,201,VALID,0,
2009-07-30, 09:56:00,VALID,920.224,VALID,0,VALID,67.8121,VALID,618.646,VALID,25.674,VALID,195,VALID,0,
2009-07-30, 09:57:00,VALID,920.208,VALID,0,VALID,68.1249,VALID,627.306,VALID,25.9598,VALID,202,VALID,0,
2009-07-30, 09:58:00,VALID,920.186,VALID,0,VALID,67.5603,VALID,617.406,VALID,26.0898,VALID,224,VALID,0.191497,
2009-07-30, 09:59:00,VALID,920.146,VALID,0,VALID,67.1026,VALID,619.529,VALID,26.1292,VALID,223,VALID,0,
2009-07-30, 10:00:00,VALID,920.137,VALID,0,VALID,67.0428,VALID,626.457,VALID,26.1546,VALID,255,VALID,1.3935,
2009-07-30, 10:01:00,VALID,920.122,VALID,0,VALID,69.511,VALID,637.817,VALID,25.7741,VALID,228,VALID,1.74167,
2009-07-30, 10:02:00,VALID,920.114,VALID,0,VALID,70.6732,VALID,595.823,VALID,25.4393,VALID,212,VALID,1.00905,
2009-07-30, 10:03:00,VALID,920.099,VALID,0,VALID,72.5285,VALID,645.204,VALID,25.3395,VALID,239,VALID,0.678516,
2009-07-30, 10:04:00,VALID,920.087,VALID,0,VALID,73.2012,VALID,636.713,VALID,25.3099,VALID,232,VALID,0.139583,
2009-07-30, 10:05:00,VALID,920.067,VALID,0,VALID,71.1272,VALID,603.499,VALID,25.2676,VALID,195,VALID,1.18955,
2009-07-30, 10:06:00,VALID,920.065,VALID,0,VALID,70.9644,VALID,610.121,VALID,25.2878,VALID,219,VALID,0.96892,
2009-07-30, 10:07:00,VALID,920.05,VALID,0,VALID,70.6287,VALID,611.87,VALID,25.2355,VALID,235,VALID,0.248047,
2009-07-30, 10:08:00,VALID,920.051,VALID,0,VALID,71.5888,VALID,637.223,VALID,25.1766,VALID,253,VALID,0.897615,
2009-07-30, 10:09:00,VALID,920.037,VALID,0,VALID,71.6842,VALID,664.783,VALID,25.1675,VALID,233,VALID,1.07227,
2009-07-30, 10:10:00,VALID,920.029,VALID,0,VALID,71.9423,VALID,657.922,VALID,25.216,VALID,208,VALID,0.839177,
2009-07-30, 10:11:00,VALID,920.009,VALID,0,VALID,72.4548,VALID,650.739,VALID,25.2741,VALID,172,VALID,0.700076,
2009-07-30, 10:12:00,VALID,920.009,VALID,0,VALID,74.0048,VALID,688.097,VALID,25.4237,VALID,211,VALID,0.44401,
2009-07-30, 10:13:00,VALID,920.027,VALID,0,VALID,73.4708,VALID,448.294,VALID,25.7033,VALID,234,VALID,0.118229,
2009-07-30, 10:14:00,VALID,920.035,VALID,0,VALID,71.2811,VALID,351.384,VALID,25.7787,VALID,233,VALID,0.0143229,
2009-07-30, 10:15:00,VALID,920.006,VALID,0,VALID,69.4728,VALID,321.091,VALID,25.7231,VALID,222,VALID,0.658482,
2009-07-30, 10:16:00,VALID,919.985,VALID,0,VALID,69.7742,VALID,341.722,VALID,25.5446,VALID,218,VALID,0.644436,
2009-07-30, 10:17:00,VALID,919.971,VALID,0,VALID,70.438,VALID,436.475,VALID,25.3977,VALID,184,VALID,0.490885,
2009-07-30, 10:18:00,VALID,919.969,VALID,0,VALID,69.9561,VALID,405.944,VALID,25.3528,VALID,239,VALID,0.504542,
2009-07-30, 10:19:00,VALID,919.945,VALID,0,VALID,71.6002,VALID,627.578,VALID,25.2914,VALID,257,VALID,0.00111607,
2009-07-30, 10:20:00,VALID,919.938,VALID,0,VALID,71.9855,VALID,683.495,VALID,25.4403,VALID,3,VALID,0.00121528,
2009-07-30, 10:21:00,VALID,919.937,VALID,0,VALID,70.7928,VALID,679.607,VALID,25.6025,VALID,4,VALID,0.0140965,
2009-07-30, 10:22:00,VALID,919.938,VALID,0,VALID,70.5016,VALID,700.816,VALID,25.7394,VALID,154,VALID,0,
2009-07-30, 10:23:00,VALID,919.937,VALID,0,VALID,71.1971,VALID,652.03,VALID,25.6613,VALID,114,VALID,0,
2009-07-30, 10:24:00,VALID,919.927,VALID,0,VALID,72.8731,VALID,629.802,VALID,25.7556,VALID,337,VALID,0.161395,
2009-07-30, 10:25:00,VALID,919.93,VALID,0,VALID,70.9301,VALID,654.56,VALID,25.98,VALID,278,VALID,0,
2009-07-30, 10:26:00,VALID,919.922,VALID,0,VALID,69.7539,VALID,706.097,VALID,26.1585,VALID,295,VALID,0.154154,
2009-07-30, 10:27:00,VALID,919.92,VALID,0,VALID,70.4304,VALID,686.009,VALID,26.4453,VALID,85,VALID,0.481658,
2009-07-30, 10:28:00,VALID,919.913,VALID,0,VALID,68.7887,VALID,700.272,VALID,26.5855,VALID,211,VALID,0.197798,
2009-07-30, 10:29:00,VALID,919.933,VALID,0,VALID,68.4861,VALID,734.132,VALID,26.6661,VALID,261,VALID,0.0621189,
2009-07-30, 10:30:00,VALID,919.921,VALID,0,VALID,66.758,VALID,774.632,VALID,26.6769,VALID,284,VALID,0.326451,
2009-07-30, 10:31:00,VALID,919.912,VALID,0,VALID,66.875,VALID,768.739,VALID,26.5273,VALID,264,VALID,0.00290698,
2009-07-30, 10:32:00,VALID,919.918,VALID,0,VALID,67.4141,VALID,772.05,VALID,26.3672,VALID,253,VALID,0,
2009-07-30, 10:33:00,VALID,919.88,VALID,0,VALID,68.3284,VALID,783.037,VALID,26.309,VALID,299,VALID,0.427379,
2009-07-30, 10:34:00,VALID,919.872,VALID,0,VALID,68.4568,VALID,792.343,VALID,26.2863,VALID,353,VALID,0.844658,
2009-07-30, 10:35:00,VALID,919.877,VALID,0,VALID,69.8009,VALID,780.592,VALID,26.4105,VALID,290,VALID,0.291266,
2009-07-30, 10:36:00,VALID,919.88,VALID,0,VALID,68.6412,VALID,777.45,VALID,26.6277,VALID,278,VALID,0.510174,